Weather History for Muncie, IN

Change the Weather History Date:

Wednesday, May 9, 2012

  Actual Average Record
Temperature  
Mean Temperature 56 °F 60 °F  
Max Temperature 65 °F 70 °F 87 °F (1963)
Min Temperature 47 °F 49 °F 33 °F (1966)
Degree Days  
Heating Degree Days 9 7  
Month to date heating degree days 14 70  
Since 1 July heating degree days 4629 5662  
Cooling Degree Days 0 1  
Month to date cooling degree days 35 9  
Year to date cooling degree days 77 24  
Growing Degree Days 8 (Base 50)    
Moisture  
Dew Point 43 °F    
Average Humidity 60    
Maximum Humidity 72    
Minimum Humidity 48    
Precipitation  
Precipitation T in 0.13 in 0.82 in (1989)
Month to date precipitation 2.48 1.12  
Year to date precipitation 11.41 12.28  
Sea Level Pressure  
Sea Level Pressure 29.86 in    
Wind  
Wind Speed 11 mph (WNW)    
Max Wind Speed 23 mph    
Max Gust Speed 127 mph    
Visibility 10 miles    
Events      
T = Trace of Precipitation, MM = Missing Value Source: NWS Daily Summary

Daily Weather History Graph

Daily Weather History Graph

Search for Another Location

Airport:

Trip Planner

Search our weather history database for the weather conditions in past years. The results will help you decide how hot, cold, wet, or windy it might be!

Date:

Astronomy

May. 09, 2012 Rise Set
Actual Time 6:31 AM EDT 8:45 PM EDT
Civil Twilight 6:01 AM EDT 9:15 PM EDT
Nautical Twilight 5:23 AM EDT 9:53 PM EDT
Astronomical Twilight 4:43 AM EDT 10:34 PM EDT
Moon No Moon Rise 9:45 AM EDT (5/9)
Length of Visible Light 15h 14m
Length of Day
14h 14m
Waning Gibbous, 83% of the Moon is Illuminated
May 9
Waning Gibbous
May 12
Last Quarter
May 20
New
May 28
First Quarter
Jun 4
Full

Hourly Weather History & Observations

Time (EDT) Temp. Dew Point Humidity Pressure Visibility Wind Dir Wind Speed Gust Speed Precip Events Conditions
12:53 AM 55.9 °F 44.1 °F 64% 29.87 in 10.0 mi WSW 5.8 mph - N/A   Clear
1:53 AM 55.0 °F 44.1 °F 67% 29.86 in 10.0 mi WSW 5.8 mph - N/A   Clear
2:53 AM 55.0 °F 44.1 °F 67% 29.86 in 10.0 mi WSW 5.8 mph - N/A   Clear
3:53 AM 54.0 °F 44.1 °F 69% 29.86 in 10.0 mi WSW 6.9 mph - N/A   Clear
4:53 AM 55.0 °F 45.0 °F 69% 29.85 in 10.0 mi WSW 5.8 mph - N/A   Overcast
5:53 AM 55.0 °F 45.0 °F 69% 29.85 in 10.0 mi West 5.8 mph - N/A   Overcast
6:53 AM 53.1 °F 45.0 °F 74% 29.86 in 10.0 mi West 4.6 mph - N/A   Mostly Cloudy
7:53 AM 55.0 °F 46.0 °F 72% 29.86 in 10.0 mi West 5.8 mph - N/A   Clear
8:53 AM 57.9 °F 45.0 °F 62% 29.86 in 10.0 mi WNW 10.4 mph - N/A   Overcast
9:53 AM 57.9 °F 46.9 °F 67% 29.87 in 10.0 mi West 8.1 mph - 0.00 in   Scattered Clouds
10:53 AM 62.1 °F 43.0 °F 50% 29.86 in 10.0 mi WNW 16.1 mph 21.9 mph N/A   Clear
11:53 AM 64.0 °F 44.1 °F 48% 29.86 in 10.0 mi West 13.8 mph 20.7 mph N/A   Scattered Clouds
12:53 PM 62.1 °F 42.1 °F 48% 29.86 in 10.0 mi WNW 16.1 mph 21.9 mph N/A   Mostly Cloudy
1:14 PM 64.4 °F 44.6 °F 49% 29.87 in 1.5 mi WNW 13.8 mph 20.7 mph N/A   Haze
1:29 PM 64.4 °F 44.6 °F 49% 29.86 in 10.0 mi WNW 13.8 mph - N/A   Mostly Cloudy
1:53 PM 62.1 °F 43.0 °F 50% 29.84 in 10.0 mi WNW 9.2 mph - N/A   Overcast
2:53 PM 63.0 °F 44.1 °F 50% 29.83 in 10.0 mi NNW 17.3 mph 20.7 mph N/A   Overcast
3:53 PM 63.0 °F 44.1 °F 50% 29.83 in 10.0 mi NW 17.3 mph 25.3 mph 0.00 in   Mostly Cloudy
4:53 PM 63.0 °F 42.1 °F 46% 29.82 in 10.0 mi WNW 16.1 mph 25.3 mph N/A   Mostly Cloudy
5:53 PM 59.0 °F 44.1 °F 58% 29.83 in 10.0 mi North 13.8 mph 28.8 mph 0.00 in   Mostly Cloudy
6:00 PM 60.8 °F 44.6 °F 55% 29.84 in 10.0 mi NNW 8.1 mph - N/A   Mostly Cloudy
6:53 PM 62.1 °F 42.1 °F 48% 29.83 in 10.0 mi NW 20.7 mph 28.8 mph N/A   Scattered Clouds
7:53 PM 59.0 °F 42.1 °F 53% 29.84 in 10.0 mi NNW 18.4 mph 24.2 mph N/A   Partly Cloudy
8:53 PM 55.0 °F 39.9 °F 57% 29.86 in 10.0 mi NNW 11.5 mph - N/A   Clear
9:53 PM 52.0 °F 39.9 °F 63% 29.89 in 10.0 mi NNW 12.7 mph - N/A   Clear
10:53 PM 51.1 °F 39.9 °F 66% 29.90 in 10.0 mi NW 8.1 mph - N/A   Clear
11:53 PM 50.0 °F 37.9 °F 63% 29.90 in 10.0 mi NW 9.2 mph - N/A   Clear